Regional Weather Roundup
Issued by NWS

Home | Current Version | Previous Version | Graphics & Text | Print | Product List | Glossary On
Versions: 1 2 3 4 5 6 7 8 9 10 11 12 13 14 15 16 17 18 19 20 21 22 23 24 25 26 27 28 29 30 31 32 33 34 35 36 37 38 39 40 41 42 43 44 45 46 47 48 49 50
158
ASUS43 KOAX 021902
RWRNE

WEATHER ROUNDUP FOR NEBRASKA
NATIONAL WEATHER SERVICE OMAHA NE
200 PM CDT MON MAY 02 2016

NOTES: SATELLITE DATA IS BEING USED TO AUGMENT CLOUD COVER ABOVE
       12000 FEET.
       "FAIR" INDICATES FEW OR NO CLOUDS BELOW 12,000 FEET WITH NO
       SIGNIFICANT WEATHER AND/OR OBSTRUCTIONS TO VISIBILITY.

  * THESE STATIONS DO NOT REPORT WEATHER SUCH AS RAIN...SNOW OR FOG.

NEZ001>004-019>022-054>056-022000-
NEBRASKA PANHANDLE

CITY           SKY/WX    TMP DP  RH WIND       PRES   REMARKS
SCOTTSBLUFF    SUNNY     59  32  36 W15       30.13F
ALLIANCE       MOSUNNY   58  32  37 NW9       30.10F
CHADRON        CLOUDY    61  31  32 NW13      30.10F
KIMBALL        SUNNY     51  30  43 N5        30.17F
SIDNEY         SUNNY     56  32  40 NW9       30.16F
$$

NEZ057>060-069>072-079>082-022000-
SOUTHWEST NEBRASKA

CITY           SKY/WX    TMP DP  RH WIND       PRES   REMARKS
NORTH PLATTE   SUNNY     60  33  36 VRB3      30.11F
IMPERIAL       SUNNY     58  34  40 NW14      30.14F
LEXINGTON      SUNNY     58  38  47 NW6       30.13F
MCCOOK         SUNNY     61  37  41 NW8G16    30.13F
$$

NEZ005>010-023>029-035>040-094-022000-
NORTH CENTRAL NEBRASKA

CITY           SKY/WX    TMP DP  RH WIND       PRES   REMARKS
VALENTINE      MOSUNNY   60  31  33 W8        30.08F
AINSWORTH      PTSUNNY   58  33  38 NW5       30.10F
BROKEN BOW     SUNNY     59  36  42 VRB6      30.11F
ORD            MOSUNNY   59  36  42 VRB5      30.10F
$$

NEZ041-046>049-061>064-073>077-083>087-022000-
SOUTH CENTRAL NEBRASKA

CITY           SKY/WX    TMP DP  RH WIND       PRES   REMARKS
GRAND ISLAND   MOSUNNY   59  35  40 CALM      30.13F
AURORA         MOSUNNY   57  36  44 CALM      30.12F
HASTINGS       MOSUNNY   56  36  47 VRB5      30.13F
KEARNEY *      SUNNY     57  36  44 W5        30.13F
YORK           PTSUNNY   57  34  41 CALM      30.12F
$$

NEZ011>018-030>034-042>045-022000-
NORTHEAST NEBRASKA

CITY           SKY/WX    TMP DP  RH WIND       PRES   REMARKS
NORFOLK        CLOUDY    60  35  39 VRB3      30.10F
ALBION         PTSUNNY   59  37  43 NE5       30.10F
BLAIR          MOSUNNY   62  40  45 N5        30.10S
COLUMBUS *     MOSUNNY   61  36  39 NW7       30.12F
FREMONT        MOSUNNY   62  36  38 W3        30.11F
TEKAMAH        MOSUNNY   63  40  42 N6        30.09F
$$

NEZ050>053-065>068-078-088>093-022000-
SOUTHEAST NEBRASKA

CITY           SKY/WX    TMP DP  RH WIND       PRES   REMARKS
LINCOLN        PTSUNNY   62  38  40 N6        30.11F
OMAHA EPPLEY   MOSUNNY   63  39  41 VRB3      30.10F
BEATRICE       PTSUNNY   60  40  47 NW3       30.11F
FALLS CITY     CLOUDY    58  45  62 CALM      30.10F
$$

NEZ044-045-051>053-067-022000-
OMAHA AREA

CITY           SKY/WX    TMP DP  RH WIND       PRES   REMARKS
OMAHA EPPLEY   MOSUNNY   63  39  41 VRB3      30.10F
BLAIR          MOSUNNY   62  40  45 N5        30.10S
FREMONT        MOSUNNY   62  36  38 W3        30.11F
OFFUTT AFB     CLOUDY    61  38  43 NE3       30.10F
$$




USA.gov is the U.S. government's official web portal to all federal, state and local government web resources and services.